#timestamp,LO_Frequency,Hit,StdDev 
1504094415.3,286047002.2,N,0.8
1504094435.1,286047001.5,N,0.8
1504094436.0,286047001.5,N,0.7
1504094455.8,286047002.2,Y,0.0
1504094475.7,286047000.8,P,0.7
1504094495.5,286047001.1,N,0.6
1504094515.3,286046998.5,N,1.3
1504094535.2,286046998.6,N,1.4
1504094555.9,286046998.2,N,1.5
1504094575.7,286047001.2,N,1.5
1504094595.6,286047000.3,N,1.4
1504094615.4,286047000.3,N,1.3
1504094635.2,286047000.0,N,1.2
1504094655.1,286047001.0,N,1.2
1504094656.0,286047001.0,N,1.2
1504094675.8,286047000.6,N,1.1
1504094695.6,286047000.8,N,1.1
1504094715.5,286047001.2,N,1.1
1504094735.3,286047001.0,N,1.1
1504094755.1,286046998.2,N,1.2
1504094775.9,286046998.3,N,1.2
1504094795.7,286047000.7,N,1.2
1504094815.5,286047001.0,N,1.2
1504094835.4,286047000.4,N,1.1
1504094855.2,286047000.3,N,1.1
1504094875.0,286047000.6,N,1.1
1504094875.9,286047000.6,N,1.1
1504094895.8,286046998.1,N,1.1
1504094915.6,286047001.2,N,1.1
1504094935.4,286047001.2,N,1.1
1504094955.3,286047000.6,N,1.1
1504094975.1,286047000.7,N,1.1
1504094995.8,286046998.6,N,1.1
1504095015.7,286046998.8,N,1.1
1504095035.5,286046998.4,N,1.1
1504095055.3,286046999.0,N,1.1
1504095075.2,286046998.3,N,1.1
1504095095.9,286046998.2,N,1.1
1504095115.7,286047000.8,N,1.1
1504095135.6,286046998.1,N,1.1
1504095155.4,286047000.9,N,1.1
1504095175.2,286047001.0,N,1.2
1504095195.1,286047000.4,N,1.2
1504095196.0,286047000.4,N,1.2
1504095245.8,286047000.4,E,nan
1504095255.7,286047001.0,N,0.0
1504095275.6,286047000.6,P,0.2
1504095295.4,286047001.1,P,0.2
1504095315.2,286047000.4,N,0.3
1504095335.1,286047000.3,N,0.3
1504095336.0,286047000.3,N,0.3
1504095355.8,286046999.9,N,0.4
1504095375.6,286047000.1,N,0.4
1504095395.5,286047002.8,Y,0.0
1504095415.3,286047000.8,P,0.2
1504095435.1,286047000.8,P,0.2
1504095455.9,286047001.1,P,0.2
1504095475.7,286047000.8,Y,0.0
1504095495.5,286046998.8,P,1.0
1504095515.4,286046998.5,N,1.0
1504095535.2,286047000.9,N,1.1
1504095555.0,286047001.2,N,1.1
1504095555.9,286047001.2,N,1.1
1504095575.8,286046998.6,N,1.2
1504095595.6,286046998.2,N,1.3
1504095615.4,286047000.7,N,1.2
1504095635.3,286047001.0,N,1.2
1504095655.1,286047000.4,N,1.2
1504095675.8,286047001.0,N,1.1
1504095695.7,286047000.3,N,1.1
1504095715.5,286046998.5,N,1.1
1504095735.3,286047001.2,N,1.1
1504095755.2,286047000.2,N,1.1
1504095775.0,286047001.0,N,1.1
1504095775.9,286047001.0,N,1.1
1504095795.7,286047000.8,N,1.1
1504095815.6,286046998.1,N,1.1
1504095835.4,286047001.2,N,1.1
1504095855.2,286046998.3,N,1.2
1504095875.1,286046998.4,N,1.2
1504095876.0,286046998.4,N,1.2
1504095895.8,286046998.1,N,1.2
1504095915.6,286047001.1,N,1.2
1504095935.5,286046998.4,N,1.3
1504095955.3,286046998.6,N,1.3
1504095975.1,286046998.9,N,1.2
1504095995.9,286046998.7,N,1.2
1504096015.7,286046998.8,N,1.2
1504096035.5,286046998.6,N,1.2
1504096055.4,286046998.2,N,1.2
1504096075.2,286046998.1,N,1.3
1504096095.0,286047001.1,N,1.3
1504096096.0,286047001.1,N,1.2
1504096115.8,286047000.9,N,1.3
1504096135.6,286047000.0,N,1.2
1504096155.4,286047000.3,N,1.2
1504096175.3,286046999.7,N,1.2
1504096195.1,286047000.7,N,1.2
1504096215.9,286046998.6,N,1.2
1504096235.7,286047000.3,N,1.2
1504096255.5,286047000.1,N,1.2
1504096275.4,286047000.6,N,1.2
1504096295.2,286046999.7,N,1.1
1504096315.0,286047000.3,N,1.1
1504096315.9,286047000.3,N,1.1
1504096335.8,286046999.0,N,1.1
1504096355.6,286046999.3,N,1.1
1504096375.4,286046998.3,N,1.0
1504096395.3,286046998.7,N,1.0
1504096415.1,286046998.3,N,1.0
1504096416.0,286046998.3,N,1.0
1504096435.8,286046999.4,N,1.0
1504096455.7,286046998.3,N,1.0
1504096475.5,286047000.8,N,1.0
1504096495.3,286046998.5,N,1.0
1504096515.2,286047001.0,N,1.0
1504096535.9,286047000.7,N,1.0
1504096555.7,286046998.5,N,1.0
1504096575.6,286047001.0,N,1.0
1504096595.4,286046998.7,N,1.0
1504096615.2,286046998.5,N,1.0
1504096635.1,286046998.3,N,1.0
1504096636.0,286046998.3,N,1.0
1504096655.8,286046996.7,Y,0.0
1504096675.6,286046998.7,P,0.4
1504096695.5,286046998.2,P,0.5
1504096715.3,286046998.6,N,0.5
1504096735.1,286046999.5,N,0.5
1504096755.9,286046997.3,Y,0.0
1504096775.7,286046997.0,P,1.0
1504096795.5,286046999.1,N,0.9
1504096815.4,286046997.7,N,0.9
1504096835.2,286046997.0,Y,0.0
1504096855.0,286047001.2,P,1.5
1504096856.0,286047001.2,N,1.4
1504096875.8,286046998.7,N,1.4
1504096895.6,286047001.2,N,1.4
1504096915.5,286046998.5,N,1.4
1504096935.3,286046998.6,N,1.3
1504096955.1,286046999.5,N,1.3
1504096975.9,286046997.0,N,1.4
1504096995.7,286046996.6,N,1.6
1504097015.5,286046998.8,N,1.5
1504097035.4,286046999.2,N,1.5
1504097055.2,286046996.5,N,1.6
1504097075.0,286046999.6,N,1.5
1504097075.9,286046999.6,N,1.5
1504097095.8,286046996.9,N,1.5
1504097115.6,286046997.9,N,1.5
1504097135.4,286046997.6,N,1.5
1504097155.3,286046997.4,N,1.5
1504097175.1,286046997.8,N,1.4
1504097176.0,286046997.8,N,1.4
1504097195.8,286046997.4,N,1.4
1504097215.7,286046995.2,Y,0.0
1504097235.5,286046997.0,P,0.8
1504097255.3,286046997.2,P,0.7
1504097275.2,286046996.8,P,0.7
1504097295.9,286046999.5,N,1.0
1504097315.7,286046997.0,N,1.0
1504097335.6,286046996.7,Y,0.0
1504097355.4,286047001.0,P,1.7
1504097375.2,286047001.2,N,1.6
1504097395.1,286046999.1,N,1.5
1504097396.0,286046999.1,N,1.3
1504097415.8,286046999.0,N,1.2
1504097435.6,286046998.3,N,1.2
1504097455.5,286046998.8,N,1.1
1504097475.3,286046999.0,N,1.1
1504097495.1,286046999.4,N,1.0
1504097515.9,286046996.6,Y,0.0
1504097535.7,286046997.7,P,0.8
1504097555.5,286046999.6,N,0.8
1504097575.4,286046999.3,N,0.7
1504097595.2,286046999.1,N,0.7
1504097615.0,286046996.5,Y,0.0
1504097615.9,286046996.5,P,1.2
1504097635.8,286047001.2,N,1.9
1504097655.6,286047000.7,N,1.8
1504097675.5,286046998.9,N,1.7
1504097695.3,286046998.8,N,1.5
1504097715.1,286046996.5,N,1.7
1504097735.9,286046999.4,N,1.6
1504097755.7,286046999.3,N,1.5
1504097775.5,286046998.9,N,1.4
1504097795.4,286046998.7,N,1.4
1504097815.2,286046998.9,N,1.3
1504097835.0,286046999.2,N,1.3
1504097835.9,286046999.2,N,1.2
1504097855.8,286046999.6,N,1.2
1504097875.6,286046998.1,N,1.2
1504097895.4,286046999.0,N,1.1
1504097915.3,286046996.7,N,1.2
1504097935.1,286046997.8,N,1.2
1504097936.0,286046997.8,N,1.2
1504097955.8,286046997.9,N,1.2
1504097975.7,286046996.7,N,1.2
1504097995.5,286046999.6,N,1.2
